Location: Ferintosh
(52.7647°N, 112.9692°W)
Time: 22:45:52
(UTC+00:00)

Transit 2A - Pass Details

Date: 25 May 2024
Orbit: 593 x 959 km, 66.7° (Epoch: 12 June)

Event Time Altitude Azimuth Distance (km) Brightness Sun altitude
Rises 04:42:55 0° 175° (S) 2,935 - -7.9°
Exits shadow 04:45:06 - 163° (SSE) 2,202 7.8 -8.1°
Reaches altitude 10° 04:45:30 10° 160° (SSE) 2,080 7.7 -8.1°
Maximum altitude 04:49:08 22° 109° (ESE) 1,498 7.1 -8.5°
Drops below altitude 10° 04:53:02 10° 60° (ENE) 2,262 8.4 -8.8°
Sets 04:55:58 0° 46° (NE) 3,265 9.4 -9.1°
